Regional Weather Roundup
Issued by NWS

Home | Current Version | Previous Version | Graphics & Text | Print | Product List | Glossary On
Versions: 1 2 3 4 5 6 7 8 9 10 11 12 13 14 15 16 17 18 19 20 21 22 23 24 25 26 27 28 29 30 31 32 33 34 35 36 37 38 39 40 41 42 43 44 45 46 47 48 49 50
000
ASUS45 KPSR 301600
RWRAZ

ARIZONA HOURLY REGIONAL WEATHER ROUNDUP
NATIONAL WEATHER SERVICE PHOENIX AZ
900 AM MST SAT MAY 30 2015

NOTE: FAIR INDICATES FEW OR NO CLOUDS BELOW 12,000 FEET WITH NO
SIGNIFICANT WEATHER AND/OR OBSTRUCTIONS TO VISIBILITY.

AZZ001>003-036-301700-
NORTHWEST ARIZONA

CITY           SKY/WX    TMP DP  RH WIND       PRES   REMARKS
KINGMAN        SUNNY     85  20   9 VRB3      30.08R
$$

AZZ004>008-015-016-018-301700-
NORTH CENTRAL ARIZONA

CITY           SKY/WX    TMP DP  RH WIND       PRES   REMARKS
GRAND CANYON   SUNNY     72  20  14 E5        30.30R
WILLIAMS       SUNNY     72  34  25 SE12      30.37R
PRESCOTT       SUNNY     76  28  17 VRB3      30.19S
FLAGSTAFF      NOT AVBL
PAYSON         SUNNY     81  36  19 SE6       30.21R
PAGE           SUNNY     73  43  33 N6        30.18S
$$

AZZ009>014-017-301700-
NORTHEAST ARIZONA

CITY           SKY/WX    TMP DP  RH WIND       PRES   REMARKS
WINSLOW        NOT AVBL
SAINT JOHNS    SUNNY     73  32  22 VRB3      30.23F
WINDOW ROCK    SUNNY     67  33  28 SW8       30.32R
$$

AZZ023-301700-
GREATER PHOENIX AREA

CITY           SKY/WX    TMP DP  RH WIND       PRES   REMARKS
PHOENIX        MOSUNNY   86  35  16 NE6       29.92R
GLENDALE       MOSUNNY   84  36  17 CALM      29.94S
LUKE AFB       SUNNY     85  35  17 NE2       29.92S
DEER VALLEY    SUNNY     85  30  13 S8        29.94R
SCOTTSDALE     SUNNY     85  33  15 CALM      29.96R
MESA-GATEWAY   MOSUNNY   82  43  24 SE9       29.96S
CHANDLER       MOSUNNY   84  43  23 CALM      29.94R
$$

AZZ027-028-301700-
SOUTHWEST MARICOPA COUNTY AND PINAL COUNTY

CITY           SKY/WX    TMP DP  RH WIND       PRES   REMARKS
CASA GRANDE    SUNNY     84  39  20 CALM      29.95R
GILA BEND      FAIR      88  36  16 VRB2      29.91R
$$

AZZ503-504-507>509-301700-
SOUTHEAST ARIZONA

CITY           SKY/WX    TMP DP  RH WIND       PRES   REMARKS
TUCSON         SUNNY     84  35  17 CALM      30.05S
DAVIS-MONTHAN  SUNNY     83  37  19 SW2       30.03S
RYAN FIELD       N/A     86  39  19 CALM      30.03S
NOGALES        SUNNY     80  37  21 W3        30.11S
SIERRA VISTA   SUNNY     81  24  12 NE6       30.17R
SAFFORD        SUNNY     83  28  13 S7        30.06R
$$

AZZ020-021-025-026-031-301700-
SOUTHWEST ARIZONA

CITY           SKY/WX    TMP DP  RH WIND       PRES   REMARKS
YUMA           NOT AVBL
$$

CAZ031-033-041-043-047-048-061-301700-
SOUTHERN CALIFORNIA

CITY           SKY/WX    TMP DP  RH WIND       PRES   REMARKS
DOWNTOWN L.A.  CLOUDY    62  57  83 CALM      29.96R HAZE
L.A. AIRPORT   CLOUDY    59  57  93 W6        29.98R FOG
SAN DIEGO      CLOUDY    63  57  81 SW6       29.98R
BURBANK        MOSUNNY   65  56  72 CALM      29.95S HAZE
ONTARIO        PTSUNNY   68  57  68 CALM      29.95R
RIVERSIDE      MOSUNNY   68  57  68 VRB3      29.95S HAZE
PALM SPRINGS   SUNNY     84  52  33 E7        29.92R
EL CENTRO NAS  MOSUNNY   78  58  49 CALM      29.89R
IMPERIAL       SUNNY     76  53  44 E5        29.87R
BLYTHE         SUNNY     85  42  22 S7        29.90R
$$

NVZ020-UTZ003-301700-
SOUTHERN NEVADA-UTAH

CITY           SKY/WX    TMP DP  RH WIND       PRES   REMARKS
LAS VEGAS      NOT AVBL
SALT LAKE CITY PTSUNNY   70  43  37 SE10      30.11R
$$

NMZ009-TXZ055-301700-
NEW MEXICO-WEST TEXAS

CITY           SKY/WX    TMP DP  RH WIND       PRES   REMARKS
ALBUQUERQUE    MOSUNNY   68  45  43 SE13      30.30S
EL PASO        MOSUNNY   78  48  34 E14G23    30.17S
$$


........................KEY........................
SKY/WX - SKY CONDITION/WEATHER
TMP    - TEMPERATURE IN FAHRENHEIT
DP     - DEW POINT IN FAHRENHEIT
RH     - RELATIVE HUMIDITY IN PERCENT
WIND   - DIRECTION AND SPEED IN MILES PER HOUR (MPH)
VRB    - VARIABLE WIND DIRECTION
PRES   - MEAN SEA LEVEL PRESSURE IN INCHES OF MERCURY
         F - FALLING PRESSURE   R - RISING PRESSURE
         S - STEADY PRESSURE
VSB    - VISIBILITY IN MILES
HX     - HEAT INDEX IN FAHRENHEIT
WCI    - WIND CHILL INDEX IN FAHRENHEIT
TC     - TEMPERATURE IN CELSIUS WHICH IS ALSO KNOWN AS
         TEMPERATURE IN CENTIGRADE
AFB    - AIR FORCE BASE
         LUKE AFB IS LUKE AIR FORCE BASE
         DAVIS-MONTHAN IS DAVIS-MONTHAN AIR FORCE BASE
NAS    - NAVAL AIR STATION
         EL CENTRO NAS IS EL CENTRO NAVAL AIR STATION
N/A    - NOT AVAILABLE




USA.gov is the U.S. government's official web portal to all federal, state and local government web resources and services.